Location: Ash Swamp
(41.5170°N, 74.6157°W)
Time: 17:29:36
(UTC+00:00)

NPP - Pass Details

Date: 14 July 2020
Orbit: 826 x 828 km, 98.7° (Epoch: 05 August)

Event Time Altitude Azimuth Distance (km) Brightness Sun altitude
Rises 06:24:14 0° 17° (NNE) 3,374 8.3 -24.2°
Reaches altitude 10° 06:26:38 10° 22° (NNE) 2,436 7.2 -24.1°
Maximum altitude 06:31:57 57° 101° (E) 968 4.0 -23.7°
Enters shadow 06:33:20 44° 151° (SSE) 1,128 4.0 -23.6°
